Date String (YYYY-MM-DD hh:mm:ss) UTC,Instrument flags,absolute air pressure of the measurement (hPa),sample flow rate (lpm),inlet stack bypass flow (lpm),air temperature of the measurement (°C),ambient temperature measured by the external sensor (°C),aerosol sample conditioner tube jacket temperature (°C),OPC LED temperature (°C),internal box temperature (°C),relative humidity of the measurement (%),span deviation,mass concentration of particles derived from Lorenz-Mie calculation of OPC scattering (μg/m³),mass concentration of particles derived from Lorenz-Mie calculation of OPC scattering (μg/m³),mass concentration of particles derived from Lorenz-Mie calculation of OPC scattering (μg/m³)
DateTimeUTC,F1_M11,P_M11,Q1_M11,Q2_M11,T1_M11,T2_M11,T3_M11,T4_M11,T5_M11,U1_M11,ZSPAN_M11,X0_M11,X2_M11,X1_M11
2024-02-20 18:00:00,SystemResetWarning,0829.3,5.00,000.00,023.9,023.4,000.0,032.0,025.7,11.9,0000.0,0004.69,0001.93,0001.44
2024-02-20 18:01:00,SystemResetWarning,0829.4,4.99,000.00,023.9,023.5,000.0,032.0,025.7,11.6,0000.0,0004.41,0001.85,0001.38
2024-02-20 18:02:00,SystemResetWarning,0829.3,4.99,000.00,023.9,023.5,000.0,032.1,025.7,11.7,0000.0,0003.79,0001.79,0001.32
2024-02-20 18:03:00,SystemResetWarning,0829.2,5.01,000.00,024.0,023.5,000.0,032.1,025.7,11.7,0000.0,0003.28,0001.66,0001.24
2024-02-20 18:04:00,SystemResetWarning,0829.1,5.01,000.00,024.0,023.5,000.0,032.1,025.7,11.6,0000.0,0003.11,0001.53,0001.14
2024-02-20 18:05:00,SystemResetWarning,0829.1,4.99,000.00,024.0,023.5,000.0,032.1,025.7,11.8,0000.0,0002.97,0001.42,0001.03
2024-02-20 18:06:00,SystemResetWarning,0829.1,4.99,000.00,024.0,023.6,000.0,032.1,025.8,11.7,0000.0,0002.83,0001.32,0000.95
2024-02-20 18:07:00,SystemResetWarning,0829.1,5.01,000.00,024.0,023.6,000.0,032.2,025.8,12.2,0000.0,0002.08,0001.19,0000.87
2024-02-20 18:08:00,SystemResetWarning,0829.1,5.01,000.00,024.0,023.6,000.0,032.2,025.8,11.9,0000.0,0001.62,0001.09,0000.83
2024-02-20 18:09:00,SystemResetWarning,0829.1,5.01,000.00,024.1,023.6,000.0,032.2,025.8,11.4,0000.0,0001.56,0001.06,0000.81
2024-02-20 18:10:00,SystemResetWarning,0829.1,4.99,000.00,024.1,023.6,000.0,032.2,025.9,11.5,0000.0,0001.42,0001.01,0000.79
2024-02-20 18:11:00,SystemResetWarning,0829.1,4.99,000.00,024.1,023.6,000.0,032.2,025.9,11.7,0000.0,0001.35,0000.97,0000.77
2024-02-20 18:12:00,SystemResetWarning,0829.1,4.99,000.00,024.1,023.6,000.0,032.2,025.9,11.6,0000.0,0001.30,0000.93,0000.75
2024-02-20 18:13:00,SystemResetWarning,0829.0,4.99,000.00,024.1,023.7,000.0,032.2,025.9,11.6,0000.0,0001.19,0000.88,0000.72
2024-02-20 18:14:00,SystemResetWarning,0829.0,5.00,000.00,024.1,023.7,000.0,032.3,025.9,11.3,0000.0,0001.23,0000.89,0000.72
2024-02-20 18:15:00,SystemResetWarning,0828.9,4.99,000.00,024.2,023.7,000.0,032.3,026.0,11.4,0000.0,0001.31,0000.90,0000.72
2024-02-20 18:16:00,SystemResetWarning,0829.0,5.01,000.00,024.2,023.7,000.0,032.3,026.0,11.3,0000.0,0001.34,0000.88,0000.73
2024-02-20 18:17:00,SystemResetWarning,0829.0,5.01,000.00,024.2,023.7,000.0,032.3,026.0,11.2,0000.0,0001.63,0000.85,0000.72
2024-02-20 18:18:00,SystemResetWarning,0829.0,4.99,000.00,024.2,023.8,000.0,032.3,026.0,11.3,0000.0,0002.64,0000.87,0000.72
2024-02-20 18:19:00,SystemResetWarning,0829.0,5.00,000.00,024.2,023.8,000.0,032.4,026.0,11.5,0000.0,0002.71,0000.90,0000.72
2024-02-20 18:20:00,SystemResetWarning,0828.9,5.00,000.00,024.2,023.8,000.0,032.4,026.1,11.5,0000.0,0002.76,0000.90,0000.71
2024-02-20 18:21:00,SystemResetWarning,0829.0,5.00,000.00,024.3,023.8,000.0,032.4,026.1,11.4,0000.0,0002.76,0000.89,0000.70
2024-02-20 18:22:00,SystemResetWarning,0829.0,5.02,000.00,024.3,023.8,000.0,032.4,026.1,11.4,0000.0,0003.47,0000.92,0000.70
2024-02-20 18:23:00,SystemResetWarning,0828.9,5.00,000.00,024.3,023.9,000.0,032.4,026.1,11.6,0000.0,0004.10,0000.92,0000.70
2024-02-20 18:24:00,SystemResetWarning,0828.9,4.99,000.00,024.3,023.9,000.0,032.5,026.1,11.7,0000.0,0004.43,0000.93,0000.70
2024-02-20 18:25:00,SystemResetWarning,0828.9,4.99,000.00,024.3,023.9,000.0,032.5,026.1,11.7,0000.0,0004.53,0000.94,0000.71
2024-02-20 18:26:00,SystemResetWarning,0828.9,5.01,000.00,024.4,023.9,000.0,032.5,026.1,11.7,0000.0,0004.49,0000.95,0000.71
2024-02-20 18:27:00,SystemResetWarning,0828.8,5.00,000.00,024.4,023.9,000.0,032.5,026.1,11.5,0000.0,0004.53,0000.95,0000.71
2024-02-20 18:28:00,SystemResetWarning,0828.8,5.01,000.00,024.4,023.9,000.0,032.5,026.2,11.2,0000.0,0004.55,0000.96,0000.71
2024-02-20 18:29:00,SystemResetWarning,0828.9,5.01,000.00,024.4,024.0,000.0,032.5,026.2,11.2,0000.0,0003.35,0000.97,0000.72
2024-02-20 18:30:00,SystemResetWarning,0829.0,5.00,000.00,024.4,024.0,000.0,032.6,026.3,11.4,0000.0,0003.31,0000.95,0000.71
2024-02-20 18:31:00,SystemResetWarning,0828.9,4.99,000.00,024.4,024.0,000.0,032.6,026.3,11.2,0000.0,0003.28,0000.95,0000.73
2024-02-20 18:32:00,SystemResetWarning,0829.0,4.99,000.00,024.5,024.0,000.0,032.6,026.3,11.5,0000.0,0003.44,0000.97,0000.74
2024-02-20 18:33:00,SystemResetWarning,0828.9,5.00,000.00,024.5,024.0,000.0,032.6,026.3,11.2,0000.0,0002.87,0000.93,0000.73
2024-02-20 18:34:00,SystemResetWarning,0828.8,5.00,000.00,024.5,024.0,000.0,032.6,026.3,11.0,0000.0,0002.17,0000.93,0000.73
2024-02-20 18:35:00,SystemResetWarning,0828.7,5.01,000.00,024.5,024.0,000.0,032.6,026.3,11.3,0000.0,0001.91,0000.94,0000.72
2024-02-20 18:36:00,SystemResetWarning,0828.8,5.00,000.00,024.5,024.1,000.0,032.7,026.4,11.0,0000.0,0001.85,0000.96,0000.72
2024-02-20 18:37:00,SystemResetWarning,0828.8,5.01,000.00,024.5,024.1,000.0,032.7,026.4,11.0,0000.0,0001.87,0000.97,0000.72
2024-02-20 18:38:00,SystemResetWarning,0828.8,5.00,000.00,024.6,024.1,000.0,032.7,026.4,11.0,0000.0,0001.82,0000.96,0000.70
2024-02-20 18:39:00,SystemResetWarning,0828.8,5.01,000.00,024.6,024.1,000.0,032.7,026.4,10.8,0000.0,0001.63,0000.94,0000.69
2024-02-20 18:40:00,SystemResetWarning,0828.7,5.00,000.00,024.6,024.1,000.0,032.7,026.3,10.6,0000.0,0001.81,0000.96,0000.68
2024-02-20 18:41:00,SystemResetWarning,0828.7,5.01,000.00,024.6,024.2,000.0,032.7,026.4,10.6,0000.0,0002.15,0000.97,0000.68
2024-02-20 18:42:00,SystemResetWarning,0828.7,5.00,000.00,024.6,024.2,000.0,032.8,026.4,10.7,0000.0,0003.24,0000.94,0000.66
2024-02-20 18:43:00,SystemResetWarning,0828.7,5.00,000.00,024.6,024.2,000.0,032.8,026.4,10.6,0000.0,0003.13,0000.95,0000.66
2024-02-20 18:44:00,SystemResetWarning,0828.7,5.00,000.00,024.7,024.2,000.0,032.8,026.5,10.6,0000.0,0004.65,0000.97,0000.66
2024-02-20 18:45:00,SystemResetWarning,0828.7,5.00,000.00,024.7,024.2,000.0,032.8,026.5,10.7,0000.0,0004.68,0000.96,0000.66
2024-02-20 18:46:00,SystemResetWarning,0828.8,5.00,000.00,024.7,024.2,000.0,032.8,026.5,10.9,0000.0,0004.72,0000.94,0000.66
2024-02-20 18:47:00,SystemResetWarning,0828.7,5.00,000.00,024.7,024.3,000.0,032.8,026.5,10.5,0000.0,0004.66,0000.91,0000.65
2024-02-20 18:48:00,SystemResetWarning,0828.7,5.00,000.00,024.7,024.3,000.0,032.9,026.6,10.7,0000.0,0004.63,0000.89,0000.65
2024-02-20 18:49:00,SystemResetWarning,0828.6,4.99,000.00,024.8,024.3,000.0,032.9,026.6,10.7,0000.0,0004.57,0000.87,0000.65
2024-02-20 18:50:00,SystemResetWarning,0828.6,5.00,000.00,024.8,024.4,000.0,032.9,026.7,10.7,0000.0,0004.80,0000.87,0000.65
2024-02-20 18:51:00,SystemResetWarning,0828.6,5.00,000.00,024.8,024.4,000.0,032.9,026.7,10.8,0000.0,0004.87,0000.86,0000.65
2024-02-20 18:52:00,SystemResetWarning,0828.5,5.00,000.00,024.9,024.5,000.0,033.0,026.8,10.7,0000.0,0004.70,0000.85,0000.65
2024-02-20 18:53:00,SystemResetWarning,0828.6,5.01,000.00,024.9,024.5,000.0,033.0,026.8,10.8,0000.0,0003.63,0000.86,0000.66
2024-02-20 18:54:00,SystemResetWarning,0828.5,5.00,000.00,025.0,024.6,000.0,033.0,026.8,10.9,0000.0,0003.37,0000.85,0000.65
2024-02-20 18:55:00,SystemResetWarning,0828.6,5.00,000.00,025.0,024.6,000.0,033.0,026.9,10.7,0000.0,0002.27,0000.82,0000.64
2024-02-20 18:56:00,SystemResetWarning,0828.6,5.00,000.00,025.0,024.6,000.0,033.1,026.9,10.4,0000.0,0001.63,0000.80,0000.64
2024-02-20 18:57:00,SystemResetWarning,0828.6,5.00,000.00,025.1,024.7,000.0,033.1,027.0,10.1,0000.0,0001.49,0000.76,0000.62
2024-02-20 18:58:00,SystemResetWarning,0828.6,5.00,000.00,025.1,024.7,000.0,033.1,027.0,09.8,0000.0,0001.47,0000.76,0000.62
2024-02-20 18:59:00,SystemResetWarning,0828.6,5.00,000.00,025.1,024.7,000.0,033.1,027.0,09.9,0000.0,0001.48,0000.79,0000.62
